Probability
0 1 2 2 1 2 5 8 9 9 7 6 6 6 5 2 0 1 2 4 5 6 6 6 6 5 4 4 5 5 5 4 3 3 3 3 3 2 1 0 0 0 0
0 1 2 2 1 2 5 8 10 10 8 6 5 5 5 3 1 2 3 3 4 5 6 6 6 5 4 5 7 7 7 5 4 3 3 3 2 1 1 0 0 0 0
1 0 1 1 1 2 5 8 10 10 9 8 6 5 6 5 4 4 3 3 3 4 6 6 6 5 6 7 9 10 9 8 6 5 4 2 1 0 0 0 0 0 0
2 1 2 2 2 3 4 6 8 10 10 10 9 8 7 6 6 5 5 4 3 4 6 7 8 8 8 9 10 11 11 10 9 7 4 3 2 1 1 0 0 0 0
4 4 4 5 5 5 4 5 8 9 10 11 12 12 10 7 7 8 9 7 4 4 5 7 9 9 9 10 11 12 13 12 10 8 5 4 4 3 2 1 0 0 0
5 6 6 7 8 7 6 6 7 8 8 9 11 13 12 11 12 13 13 10 6 4 5 7 8 9 9 10 11 12 13 12 11 9 7 6 5 5 4 2 1 1 1
4 5 6 8 10 9 8 8 7 6 6 6 8 11 13 15 16 16 14 9 6 5 7 8 8 9 9 9 10 12 12 11 11 11 9 7 6 6 5 4 3 2 1
3 4 6 9 10 10 9 7 7 7 7 8 9 11 13 15 16 16 12 8 6 8 9 10 10 9 8 7 8 10 11 12 11 11 10 9 7 6 6 6 5 4 2
5 5 6 8 9 9 8 7 8 8 10 10 10 11 13 14 15 14 11 7 7 10 11 11 11 10 8 8 8 8 9 11 12 11 11 9 8 7 7 7 8 7 7
6 7 7 8 8 8 8 10 10 10 11 11 11 11 12 14 15 13 11 10 11 12 12 13 14 13 11 12 12 8 7 9 11 10 8 7 8 8 7 7 9 11 12
8 9 9 9 7 7 10 15 16 14 12 12 12 12 11 13 14 13 12 14 14 14 14 16 18 17 17 17 16 11 9 10 10 9 8 7 9 11 10 9 11 13 14
13 13 13 12 11 13 17 22 24 22 17 14 14 13 12 12 12 12 12 13 14 15 16 18 21 21 20 20 18 15 14 14 14 13 12 11 12 15 15 13 13 14 13
20 19 17 17 18 20 24 28 30 28 23 17 15 14 13 12 13 12 11 11 12 14 16 18 21 21 20 19 18 16 17 19 19 19 17 14 15 17 17 15 14 13 12
23 22 21 22 24 26 28 30 31 29 26 21 17 15 15 15 15 14 12 13 13 13 15 18 19 19 18 17 16 16 17 19 20 19 17 14 12 13 13 12 13 13 12
24 24 25 26 29 31 30 31 30 27 25 23 20 17 18 19 18 17 16 16 16 16 17 19 19 18 16 14 13 14 15 16 18 17 14 10 8 8 8 7 9 12 13
26 28 30 31 35 38 37 35 32 29 27 26 23 22 21 22 21 20 20 20 19 18 19 19 18 16 12 9 9 10 12 14 14 14 11 7 5 5 5 4 5 7 9
28 31 34 37 39 42 42 39 36 32 29 25 23 23 24 23 22 22 23 23 21 19 18 17 16 13 9 5 4 6 10 11 11 11 9 6 4 5 6 5 3 4 5
25 29 35 39 41 41 40 39 36 32 27 22 20 21 22 21 19 21 24 27 25 20 15 13 12 10 6 3 1 2 5 7 8 8 7 5 4 4 6 7 7 7 8
25 29 34 39 42 41 39 39 36 30 25 22 21 21 21 18 17 20 23 26 26 21 14 11 10 8 5 2 0 1 3 5 6 5 5 5 5 3 4 7 10 12 13
31 32 34 38 43 44 42 40 36 30 25 24 25 24 23 21 20 20 20 22 23 20 15 12 10 8 5 1 0 1 4 6 5 4 4 4 4 3 2 6 11 13 13
32 32 32 35 40 45 45 43 38 32 28 28 28 27 24 22 21 19 18 19 20 19 17 15 11 8 5 2 0 1 3 5 5 4 3 3 3 2 1 3 8 9 9
28 28 29 32 37 43 46 45 41 35 33 32 31 27 24 20 18 17 17 18 18 17 17 15 12 9 6 2 0 0 1 2 4 4 4 3 2 1 0 1 2 3 3
28 26 25 29 34 39 42 43 41 38 37 36 33 28 24 21 18 18 17 17 17 16 14 13 11 10 8 4 2 1 1 1 3 4 3 2 1 0 0 0 0 1 2
28 25 24 26 31 35 37 38 38 37 36 35 32 28 25 23 21 19 17 16 16 15 14 13 11 11 10 7 4 3 4 4 4 4 4 2 1 1 1 1 2 3 4
26 26 25 28 33 36 36 36 35 33 30 29 28 26 25 25 22 18 15 13 13 13 12 11 11 11 10 6 3 4 5 5 4 4 4 4 3 2 3 4 4 4 4
24 27 28 30 35 38 37 36 34 30 26 24 23 23 25 26 23 18 13 9 8 8 8 7 7 8 7 4 2 2 3 3 3 3 4 4 4 3 4 5 5 4 3
Wind_Speed
8 8 7 6 6 6 6 6 5 4 3 3 2 2 2 1 1 1 2 1 1 1 1 1 2 1 2 1 2 2 3 2 2 2 2 3 2 2 2 1 1 2 1
9 9 8 7 7 7 7 7 6 5 5 3 2 1 1 1 1 1 2 1 1 1 1 1 1 1 2 2 2 2 1 1 2 1 2 3 4 2 2 1 1 1 1
10 10 9 9 8 8 8 6 6 6 5 4 3 2 2 2 2 2 1 1 1 1 1 0 0 1 1 2 2 2 2 1 1 1 2 1 1 2 2 1 1 1 1
10 10 10 9 9 8 8 8 7 7 6 6 4 4 2 1 1 1 1 1 1 1 1 1 1 1 1 1 2 2 2 2 1 1 1 2 1 1 2 2 1 1 1
10 10 10 10 9 8 8 8 8 7 7 6 5 5 3 2 2 1 2 1 1 1 1 1 1 1 1 1 1 1 2 2 2 1 1 1 1 2 1 1 1 1 1
11 10 10 9 8 8 8 8 8 7 7 7 6 5 4 3 2 2 2 2 1 1 1 1 1 2 1 2 2 2 3 2 2 2 1 1 1 1 1 1 1 1 1
11 11 11 10 9 9 8 8 8 8 8 7 6 6 5 4 4 3 2 2 1 1 1 1 1 1 1 1 2 2 1 2 2 2 2 1 1 1 1 2 1 1 1
11 11 12 11 10 9 9 9 9 8 8 7 6 5 5 4 3 3 2 2 1 0 0 0 1 1 1 1 1 1 1 1 1 1 1 1 1 1 2 2 2 2 2
10 11 12 11 10 10 9 9 9 8 8 7 6 5 4 3 2 3 3 2 1 1 1 1 1 1 1 1 1 1 1 1 1 1 2 2 1 1 1 2 2 2 2
10 11 11 11 10 10 9 9 9 8 8 8 7 6 5 5 4 3 2 1 1 1 1 1 1 1 1 2 2 2 1 1 1 0 0 1 1 1 1 1 1 2 2
9 9 10 10 10 10 10 9 9 9 8 7 7 6 5 4 4 3 3 2 1 1 2 1 1 1 1 1 2 2 2 1 1 1 1 1 1 1 1 1 1 1 1
8 8 9 10 10 10 10 10 9 9 8 7 7 6 5 5 4 3 2 2 1 2 2 2 1 1 2 1 2 2 2 1 1 1 1 1 1 1 1 1 1 1 1
7 7 8 9 10 10 9 10 10 9 8 8 8 7 6 5 5 4 3 2 2 2 2 2 2 2 2 2 1 1 1 1 1 1 1 1 1 1 1 1 1 2 2
7 7 7 8 9 9 9 9 9 10 9 9 9 8 7 6 5 4 4 3 3 3 3 3 2 2 2 2 2 2 2 1 1 1 0 0 1 1 2 2 1 1 2
7 7 8 8 9 9 10 9 9 9 9 9 8 8 7 6 5 5 4 4 3 3 4 3 3 2 2 1 1 2 2 2 1 1 1 1 2 3 1 1 1 2 2
6 7 8 9 9 10 10 10 10 9 9 9 8 7 7 6 6 5 5 4 3 3 3 3 2 2 2 4 3 1 2 1 1 1 1 2 2 2 2 1 2 1 2
6 7 7 8 9 9 10 10 9 9 8 8 7 7 7 7 6 5 5 4 4 4 3 3 3 3 4 3 2 2 1 1 1 0 1 1 1 2 2 3 3 2 1
5 6 6 7 8 9 9 9 9 9 8 8 8 7 7 7 6 5 5 4 4 4 3 3 3 3 4 3 1 2 2 1 1 0 0 1 1 1 1 2 2 2 2
4 5 6 7 8 8 9 10 9 9 8 8 8 8 8 7 7 6 5 5 4 4 4 3 3 3 3 2 2 4 3 2 2 1 0 1 1 2 3 2 2 2 2
3 5 6 7 8 8 9 10 9 9 8 8 8 7 7 7 7 6 5 5 4 4 4 4 3 3 3 3 2 5 3 2 2 2 2 2 1 1 3 2 2 2 1
4 5 6 6 7 8 9 9 9 8 8 7 7 7 7 7 7 6 5 5 5 4 4 4 3 3 3 4 3 3 3 2 2 2 1 2 2 0 3 3 2 1 2
4 5 5 6 6 8 9 8 8 8 8 8 7 7 7 6 6 6 5 5 5 5 5 4 4 4 4 3 4 3 3 4 2 2 1 2 2 1 3 3 1 3 5
4 5 5 5 6 7 8 8 7 7 8 8 7 7 7 6 6 6 6 6 5 5 4 4 4 4 3 4 6 6 5 5 4 1 2 1 3 4 4 4 4 5 4
4 4 5 5 6 7 7 6 7 7 7 7 7 6 6 6 6 5 5 4 4 4 4 4 4 3 3 3 4 4 5 6 6 4 4 6 7 6 3 4 5 4 2
3 4 4 5 5 7 6 6 7 7 7 7 6 6 6 5 5 4 2 3 2 1 2 2 3 3 3 1 1 2 2 2 1 2 4 4 4 4 3 3 2 3 3
2 3 4 4 5 5 6 6 7 7 7 7 6 5 5 5 4 4 3 4 2 4 2 2 2 0 2 3 1 1 1 1 1 4 4 4 3 3 3 3 3 3 3
Wind_Direction
187 185 188 191 189 188 185 183 183 167 176 179 185 169 152 136 116 110 88 94 100 111 148 129 128 153 138 143 152 158 153 160 155 159 138 126 116 95 92 86 74 110 106
187 188 190 190 192 188 187 184 181 177 185 174 181 167 111 121 102 75 86 83 92 98 151 123 166 135 140 145 152 171 185 178 197 226 207 172 152 134 95 102 109 67 100
191 188 192 194 192 191 189 187 182 179 185 183 181 162 163 180 154 136 128 93 80 80 40 124 215 182 202 149 171 190 206 213 192 242 276 269 134 133 124 94 74 60 40
194 191 191 192 195 191 186 186 183 183 183 187 190 187 189 179 133 146 122 114 96 101 170 207 197 221 200 165 208 189 227 244 226 191 256 307 349 241 153 153 128 116 72
192 191 191 188 189 186 186 183 182 184 185 188 187 197 203 191 174 160 132 162 136 186 209 193 198 202 207 198 233 213 240 245 257 249 214 195 201 253 234 163 163 135 105
190 190 188 183 183 183 184 181 177 185 188 190 192 200 203 203 195 196 195 200 175 177 179 200 199 207 212 206 219 222 218 246 260 266 254 234 234 208 198 199 206 170 109
188 185 184 182 184 184 182 180 178 184 188 190 193 197 203 205 208 220 210 233 205 192 149 211 206 217 199 210 215 198 230 228 223 238 249 254 269 245 220 211 210 196 162
186 186 185 183 184 184 183 181 180 183 185 188 189 195 200 208 204 209 227 225 251 278 56 198 193 195 202 194 183 194 197 202 219 231 240 238 232 203 204 221 211 206 189
185 186 184 183 183 184 185 184 181 183 184 182 176 180 189 201 201 198 213 216 221 193 165 184 182 183 178 184 192 166 204 175 210 207 195 216 188 211 214 229 238 248 229
181 182 181 181 183 183 182 182 182 182 181 179 181 176 179 186 197 208 203 205 205 203 184 189 175 174 169 178 190 174 161 158 149 243 325 265 211 180 213 229 231 250 253
178 179 180 180 182 180 176 177 178 179 179 178 176 173 171 175 182 190 187 183 189 190 189 182 177 165 176 180 180 187 163 170 157 174 162 195 243 208 214 213 211 223 211
175 175 176 177 180 181 178 175 176 176 174 167 166 164 163 164 171 168 167 171 180 189 175 168 162 156 144 156 180 183 160 170 160 157 163 182 171 165 235 226 203 171 189
173 171 172 177 179 180 180 174 173 169 162 160 165 163 165 163 166 164 163 163 168 177 168 156 148 136 126 126 125 122 123 116 105 107 133 157 167 189 182 211 203 187 179
172 170 170 174 175 176 175 174 172 165 164 166 168 166 169 171 164 160 159 160 162 162 164 141 131 132 132 131 128 122 115 107 93 73 70 105 202 203 201 200 205 207 192
171 171 172 171 172 172 173 173 171 168 166 169 171 171 167 159 156 153 152 151 147 143 141 136 137 142 148 117 127 156 148 135 122 113 112 81 45 31 7 296 215 204 212
175 174 175 172 172 174 174 170 171 168 168 170 167 159 157 154 152 152 152 150 147 137 134 140 141 141 87 55 27 327 143 154 158 158 164 158 144 117 116 53 33 355 248
178 175 176 175 174 172 168 166 161 158 159 161 159 159 157 154 154 156 152 154 152 143 137 132 137 123 95 77 55 334 203 138 114 185 254 254 124 183 175 158 166 164 239
185 178 174 171 171 165 160 157 156 158 161 161 160 162 161 159 158 162 161 160 151 144 139 138 142 141 119 116 150 276 203 152 147 151 322 311 294 323 276 201 188 198 207
182 172 173 165 160 159 156 155 159 163 166 167 167 167 165 162 165 166 166 162 152 148 154 152 155 155 134 135 206 260 191 168 170 182 51 309 294 5 303 226 199 205 194
163 159 158 155 153 155 156 158 162 165 170 171 169 167 166 165 167 164 166 164 167 166 168 155 167 171 159 156 214 263 219 173 184 169 159 97 343 343 313 239 213 212 212
154 156 154 155 154 156 160 165 165 167 167 165 165 168 169 169 168 168 170 172 179 172 174 167 175 182 174 164 188 262 258 214 213 204 195 117 110 185 301 281 263 257 263
154 156 156 156 155 160 166 170 171 166 162 162 163 165 169 172 165 170 175 179 181 180 182 183 194 185 178 177 176 210 257 295 245 241 234 113 146 217 261 259 277 271 260
162 163 163 160 162 169 174 176 169 162 160 159 161 163 167 170 169 176 179 183 189 198 193 194 200 196 180 166 178 196 216 244 247 261 56 163 216 225 215 208 230 238 237
166 166 168 169 172 176 180 174 160 162 162 162 164 167 171 173 172 184 190 194 194 200 203 206 207 201 196 198 186 192 195 203 216 223 196 205 222 232 230 206 213 226 246
170 172 176 174 176 177 176 166 163 167 168 169 172 175 176 171 172 180 191 208 185 208 235 223 211 212 212 122 34 277 241 254 255 241 231 224 212 213 215 217 217 224 222
188 186 183 180 171 167 169 166 168 174 174 175 179 181 178 170 176 174 163 67 63 78 57 5 321 33 90 119 150 247 269 269 230 241 233 230 228 227 227 231 226 224 229